sat.trackr.live / text

‹ back to catalog

STARLINK-30486

NORAD 58009 · 2023-153U

PAYLOAD ACTIVE UNKNOWN

§ Identity

Operator
Country
US
Launch date
2023-10-05
Launch site
AFETR
Launch vehicle
Mass (kg)
RCS (m²)

Purposes: comms

External: N2YO · Heavens-Above · Gunter

§ Orbital elements

Epoch: 2026-09-19T17:21:29.382336Z

Period
94.27 min
Inclination
43.0002°
Eccentricity
0.0000952
Mean motion
15.27606118 rev/d
Perigee alt
482.3 km
Apogee alt
483.6 km
Semi-major
6,861.1 km
B*
1.5534e-4
RAAN
51.0449°
Arg perigee
26.8697°
Mean anomaly
333.2204°
Rev number
16,447

§ Raw data

STARLINK-304861 58009U 23153U   26262.72325674  .00004018  00000+0  15534-3 0  99932 58009  43.0002  51.0449 0000952  26.8697 333.2204 15.27606118164476

JSON: /api/v1/satellites/58009 · /tle

For live sub-satellite position, see the globe view (requires WebGL).

§ Visibility from observer

Set your observer location to see the next 7 days of passes ≥ 10°. The values pass through the URL so the page stays shareable.

No JS? Fill the form by hand. The geolocation button needs JavaScript.